Home   Weather   Albany   Past weeks

Flag for USA Past Weather in Albany, New York, USA — Yesterday and Last 2 Weeks

58 °F


Feels Like: 56 °F
Forecast: 42 / 58 °F
Wind: 10 mph from Northwest

Location: Albany County Airport

Current Time: Oct 21, 2016 at 9:54:45 PM

Latest Report: Oct 21, 2016 at 8:51 PM

Visibility: 10 mi

Pressure: 29.53 "Hg

Humidity: 81%

Dew Point: 52 °F

Location of AlbanyLocation

Past Weather in Albany — Graph


Albany Temperature Yesterday

Maximum temperature yesterday: 59 °F (at 11:51 PM)
Minimum temperature yesterday: 45 °F (at 6:51 AM)
Average temperature yesterday: 52 °F

High & Low Weather Summary for the Past Weeks

High84 °F (Oct 18, 3:51 PM)100% (Oct 18, 3:55 AM)30.50 "Hg (Oct 18, 3:55 AM)
Low30 °F (Oct 15, 6:51 AM)25% (Oct 11, 4:51 PM)29.52 "Hg (Oct 21, 6:51 PM)
Average57 °F71%30.12 "Hg
* Reported Oct 6 7:51 PM — Oct 21 7:51 PM, Albany, Weather by CustomWeather, © 2016

Note: Actual official high and low records may vary slightly from our data, if they occured in-between our weather recording intervals... More about our weather records


Albany Weather History for the Previous 24 Hours

Scroll right to see more
Time TempWeatherWind HumidityBarometerVisibility
7:51 PM
Fri, Oct 21
62 °FMostly cloudy.No wind93%29.52 "Hg10 mi
6:51 PM64 °FPassing clouds.No wind90%29.52 "Hg10 mi
5:51 PM67 °FScattered clouds.8 mph81%29.53 "Hg10 mi
4:51 PM67 °FMostly cloudy.7 mph87%29.56 "Hg10 mi
3:51 PM68 °FLight rain. Partly sunny.9 mph87%29.57 "Hg10 mi
2:51 PM68 °FLight rain. Mostly cloudy.8 mph87%29.61 "Hg10 mi
1:51 PM69 °FMostly cloudy.6 mph87%29.63 "Hg10 mi
12:51 PM69 °FLight rain. More clouds than sun.7 mph79%29.67 "Hg10 mi
11:51 AM71 °FMostly cloudy.14 mph71%29.69 "Hg10 mi
10:51 AM71 °FBroken clouds.13 mph73%29.72 "Hg10 mi
9:51 AM69 °FPartly sunny.15 mph76%29.74 "Hg10 mi
8:51 AM67 °FBroken clouds.16 mph79%29.76 "Hg10 mi
7:51 AM65 °FBroken clouds.10 mph85%29.77 "Hg10 mi
6:51 AM65 °FMostly cloudy.13 mph87%29.78 "Hg10 mi
5:51 AM65 °FOvercast.9 mph87%29.80 "Hg10 mi
4:51 AM63 °FOvercast.8 mph87%29.82 "Hg10 mi
3:51 AM61 °FOvercast.5 mph87%29.84 "Hg10 mi
2:51 AM61 °FOvercast.6 mph87%29.86 "Hg10 mi
1:51 AM61 °FOvercast.9 mph81%29.88 "Hg10 mi
12:51 AM60 °FOvercast.5 mph83%29.90 "Hg10 mi
11:51 PM
Thu, Oct 20
59 °FOvercast.8 mph84%29.94 "Hg10 mi
10:51 PM56 °FMostly cloudy.No wind90%29.96 "Hg10 mi
9:51 PM56 °FMostly cloudy.No wind90%29.97 "Hg10 mi
Weather by CustomWeather, © 2016

See weather overviewHow to use our weather pages